Domov               UVHVVR             MKGP            O straneh              
ZDRAVSTVENO VARSTVO RASTLIN
  MREŽA AGROMET. POSTAJ
 ► PROGNOSTIČNA OBVESTILA
AGROMETEOROLOŠKI PODATKI -
ARSO
OBVLADOVANJE TVEGANJ ZARADI
NEUGODNIH VREMENSKIH RAZMER
  ► NARAVNE NESREČE
  ► SUŠA/MOČA
  ► NAMAKANJE
  ► ŽLED (gozdarstvo)
KARTOGRAFSKI PRIKAZI
SPLETNE POVEZAVE
PROJEKTI IN PUBLIKACIJE

AGROMETEOROLOŠKA MREŽA: VREMENSKE POSTAJE IN FENOLOŠKA OPAZOVANJA

Pregled podatkov za lokacijo Ritoznoj, meteorološka postaja 27393

Pregled senzorjev na lokaciji

ID Ime Zadnja
vrednost
Datum
zadnje
spremembe
Tip
senzorja
4401 Omočenost lista (U) 0 U 18.2.2019 13:35 A730WET
4402 Padavine (mm) 0 mm 18.2.2019 13:35 Generic 0.2 mm
4400 Relativna vlaga 2 m (% RH) 31,33 % RH 18.2.2019 13:35 Generic 0 - 100 %
4399 Temperatura 2 m (°C) 14,26 °C 18.2.2019 13:35 Generic -40 - +60 °C

Pregled podatkov zadnjih 24 ur

Zap.
št.
Datum in čas Ritoznoj
Omočenost
lista
Padavine Relativna
vlaga
2
m
Temperatura
2
m
1 18.2.2019 14:00
2 18.2.2019 13:30 0 0 31,3 14,3
3 18.2.2019 13:00 0 0 31,8 13,7
4 18.2.2019 12:30 0 0 34,4 12,9
5 18.2.2019 12:00 0 0 36,9 12,1
6 18.2.2019 11:30 0 0 38,4 11,4
7 18.2.2019 11:00 0 0 40,5 10,6
8 18.2.2019 10:30 0 0 41,4 9,4
9 18.2.2019 10:00 0 0 47,4 8,4
10 18.2.2019 09:30 0 0 51 7,8
11 18.2.2019 09:00 0 0 55,8 7,1
12 18.2.2019 08:30 0 0 45,4 7,7
13 18.2.2019 08:00 0 0 52,7 5,1
14 18.2.2019 07:30 0 0 51,3 4,6
15 18.2.2019 07:00 0 0 53 3,8
16 18.2.2019 06:30 0 0 59 3
17 18.2.2019 06:00 0 0 60,9 2,8
18 18.2.2019 05:30 0 0 57,4 3,4
19 18.2.2019 05:00 0 0 55,5 3,8
20 18.2.2019 04:30 0 0 59,3 3,8
21 18.2.2019 04:00 0 0 56,7 4,2
22 18.2.2019 03:30 0 0 55,6 4,5
23 18.2.2019 03:00 0 0 56,4 3,9
24 18.2.2019 02:30 0 0 59,9 3,8
25 18.2.2019 02:00 0 0 57,8 4,7
26 18.2.2019 01:30 0 0 53,3 5,3
27 18.2.2019 01:00 0 0 49,3 6,7
28 18.2.2019 00:30 0 0 46,3 7,3
29 18.2.2019 00:00 0 0 44,7 7,6
30 17.2.2019 23:30 0 0 42,9 8,3
31 17.2.2019 23:00 0 0 43,2 8,4
32 17.2.2019 22:30 0 0 41,4 9
33 17.2.2019 22:00 0 0 39,5 9,4
34 17.2.2019 21:30 0 0 41,2 8,8
35 17.2.2019 21:00 0 0 42,5 9,3
36 17.2.2019 20:30 0 0 39,2 9,8
37 17.2.2019 20:00 0 0 40,1 9,7
38 17.2.2019 19:30 0 0 41,7 10,1
39 17.2.2019 19:00 0 0 40 10,4
40 17.2.2019 18:30 0 0 47,3 10,6
41 17.2.2019 18:00 0 0 48,2 10,6
42 17.2.2019 17:30 0 0 47,9 11,3
43 17.2.2019 17:00 0 0 44,6 12,3
44 17.2.2019 16:30 0 0 40,4 14,3
45 17.2.2019 16:00 0 0 29,3 15
46 17.2.2019 15:30 0 0 27,7 15,1
47 17.2.2019 15:00 0 0 28,9 15,2
48 17.2.2019 14:30 0 0 27,4 15,4
© 2011 Ministrstvo za kmetijstvo, gozdarstvo in prehrano. Vse pravice pridržane.